Location: Newark
(48.1500°N, 2.9667°W)
Time: 01:41:11
(UTC+00:00)

A-11 Canister half - Pass Details

Date: 20 January 2020
Orbit: 1524 x 1684 km, 47.3° (Epoch: 21 February)

Event Time Altitude Azimuth Distance (km) Brightness Sun altitude
Rises 22:07:53 0° 270° (W) 4,726 12.0 -51.0°
Reaches altitude 10° 22:10:54 10° 270° (W) 3,760 11.4 -51.4°
Enters shadow 22:14:21 26° 270° (W) 2,711 10.4 -51.9°
Maximum altitude 22:20:30 86° 184° (S) 1,614 - -52.7°
Drops below altitude 10° 22:30:27 10° 97° (E) 3,887 - -53.9°
Sets 22:33:38 0° 97° (E) 4,891 - -54.3°
